Notices

What's New in latest Release from April 7th, 2021:

- Updated Glossary, including Speed of Maximum Gust, and Total Hourly Precipitation

- Updated national and regional climate services offices contacts and prices information

- Addition of station inventory lists for 1981-2010, 1971-2000, and 1961-1990 Normals.

If you haven't already, please take our survey and provide feedback about our website: https://eccc.sondage-survey.ca/f/LanguageSelection.aspx?s=442ca660-fcf1-47c0-95a9-59707d6fd709

Hourly Data Report for July 17, 2019

TORONTO CITY
ONTARIO
Current Station Operator: ECCC - MSC

43°40'00.000" N
79°24'00.000" W
112.50 m
6158355
71508
XTO

Download Data

Hourly Data (July 2019)
Hourly Data Report for July 17, 2019
TIME
LST
Temp Definition
°C
Dew Point Definition
°C
Rel Hum Definition
%
Precip. Amount Definition
mm

Wind Dir Definition
10's deg

Wind Spd Definition
km/h
Visibility Definition
km
Stn Press Definition
kPa
Hmdx Definition


Wind Chill Definition


Weather Definition


00:00 23.3 20.0 82 0.0       99.96 31   LegendNANA
01:00 22.2 20.1 88 1.6       99.92 30   LegendNANA
02:00 22.3 20.4 89 0.0       99.86 30   LegendNANA
03:00 22.3 20.5 90 0.6       99.82 30   LegendNANA
04:00 22.3 20.3 89 0.0       99.83 30   LegendNANA
05:00 22.4 20.4 89 0.0       99.84 30   LegendNANA
06:00 22.4 20.4 88 0.7       99.83 30   LegendNANA
07:00 22.4 20.6 89 1.5       99.87 30   LegendNANA
08:00 22.7 21.0 90 1.5       99.89 31   LegendNANA
09:00 22.7 21.0 90 8.2       99.92 31   LegendNANA
10:00 22.8 21.0 90 5.9       99.90 31   LegendNANA
11:00 23.0 21.2 90 1.2       99.89 32   LegendNANA
12:00 24.5 21.6 84 0.0       99.89 33   LegendNANA
13:00 25.4 20.4 74 0.0       99.92 33   LegendNANA
14:00 27.0 20.7 68 0.0       99.81 35   LegendNANA
15:00 26.7 19.9 66 0.0       99.76 34   LegendNANA
16:00 28.2 20.9 65 0.0       99.71 37   LegendNANA
17:00 25.9 20.9 74 0.0       99.79 34   LegendNANA
18:00 25.0 20.8 77 0.4       99.79 33   LegendNANA
19:00 24.9 21.1 79 0.0       99.81 33   LegendNANA
20:00 24.2 20.9 82 0.0       99.87 33   LegendNANA
21:00 23.8 20.5 82 0.0       99.94 32   LegendNANA
22:00 22.7 20.3 86 0.0       99.98 31   LegendNANA
23:00 22.6 20.3 87 0.0       99.95 30   LegendNANA

Notes on Data Quality.

Legend

  • E = Estimated
  • M = Missing
  • NA = Not Available*
  • [empty] = Indicates an unobserved value
Date modified: